Location: B?dargowo
(53.3916°N, 14.4413°E)
Time: 21:33:51
(UTC+00:00)

CZ-4B DEB - Visible Passes

Search period start: 26 February 2024 00:00
Search period end: 07 March 2024 00:00
Orbit: 554 x 734 km, 97.7° (Epoch: 25 February)

Date Brightness Start Highest point End Pass type
(mag) Time Alt. Az. Time Alt. Az. Time Alt. Az.
26 Feb ? 01:05:08 13° ENE 01:06:30 14° NE 01:08:58 10° NNE visible
26 Feb ? 02:42:46 57° NE 02:42:46 57° NE 02:47:05 10° N visible
26 Feb ? 04:20:24 21° WNW 04:20:24 21° WNW 04:23:07 10° NW visible
26 Feb ? 17:35:43 10° N 17:39:44 26° WNW 17:43:37 10° WSW visible
27 Feb ? 01:29:38 18° ENE 01:30:53 20° NE 01:34:25 10° N visible
27 Feb ? 03:07:16 76° NW 03:07:16 76° NW 03:11:54 10° NNW visible
27 Feb ? 04:44:54 15° WNW 04:44:54 15° WNW 04:47:04 10° NW visible
27 Feb ? 18:00:57 10° NNW 18:04:10 18° NW 18:07:18 10° W visible
28 Feb ? 01:54:04 25° E 01:55:20 29° ENE 01:59:34 10° N visible
28 Feb ? 03:31:42 54° W 03:31:42 54° W 03:36:33 10° NNW visible
28 Feb ? 18:26:33 10° NNW 18:28:28 12° NW 18:30:21 10° WNW visible
29 Feb ? 02:18:26 34° ESE 02:19:50 43° ENE 02:24:31 10° N visible
29 Feb ? 03:56:03 33° WSW 03:56:31 34° W 04:01:02 10° NNW visible
29 Feb ? 17:12:58 10° N 17:17:25 36° WNW 17:21:39 10° SW visible
01 Mar ? 01:06:02 10° E 01:08:39 15° NE 01:11:18 10° NNE visible
01 Mar ? 02:42:43 40° SE 02:44:23 66° ENE 02:49:19 10° N visible
01 Mar ? 04:20:21 21° WSW 04:21:25 22° W 04:25:17 10° NW visible
01 Mar ? 17:37:56 10° N 17:41:48 24° WNW 17:45:32 10° WSW visible
02 Mar ? 01:29:20 10° ESE 01:32:56 21° NE 01:36:34 10° N visible
02 Mar ? 03:06:55 36° S 03:08:59 81° WSW 03:13:59 10° NNW visible
02 Mar ? 04:44:32 12° WSW 04:46:23 14° W 04:49:02 10° NW visible
02 Mar ? 18:03:05 10° NNW 18:06:05 17° NW 18:09:01 10° W visible
03 Mar ? 01:53:24 12° ESE 01:57:16 30° ENE 02:01:33 10° N visible
03 Mar ? 03:31:00 25° SSW 03:33:39 51° W 03:38:30 10° NNW visible
03 Mar ? 18:28:45 10° NNW 18:30:16 11° NW 18:31:46 10° WNW visible
04 Mar ? 00:45:25 10° NE 00:46:12 10° NE 00:46:59 10° NE visible
04 Mar ? 02:17:20 12° SE 02:21:39 45° ENE 02:26:22 10° N visible
04 Mar ? 03:54:55 15° SSW 03:58:22 33° W 04:02:51 10° NNW visible
04 Mar ? 17:14:49 10° N 17:19:07 34° WNW 17:23:12 10° SW visible
05 Mar ? 01:07:35 10° E 01:10:20 15° NE 01:13:04 10° NNE visible
05 Mar ? 02:41:13 10° SSE 02:46:05 69° ENE 02:51:02 10° N visible
05 Mar ? 04:19:23 10° SW 04:23:09 21° W 04:26:56 10° NW visible
05 Mar ? 17:39:41 10° N 17:43:23 23° WNW 17:46:56 10° WSW visible
06 Mar ? 01:30:50 10° ESE 01:34:30 21° ENE 01:38:11 10° N visible
06 Mar ? 03:05:39 10° S 03:10:35 78° WSW 03:15:34 10° NNW visible
06 Mar ? 04:45:28 10° WSW 04:47:58 14° W 04:50:30 10° NW visible
06 Mar ? 18:04:45 10° NNW 18:07:32 16° NW 18:10:15 10° W visible
